Theta_e
292 295 297 299 300 301 302 304 305 307 309 310 311 311 311 311 311 311 310 310 310 310 310 310 310 309 310 312 312 311 311 311 311 311 312 313 312 312 311 311 311 312 313
289 292 295 296 298 299 300 301 301 303 306 308 309 310 309 309 309 309 309 310 310 310 310 309 309 309 309 309 309 309 309 308 308 307 312 314 313 311 311 311 311 311 311
287 289 291 294 296 297 299 300 301 302 302 304 305 306 306 307 307 307 307 308 308 308 308 308 308 308 307 307 307 307 308 307 307 307 307 309 310 309 311 311 310 309 307
288 286 287 291 295 296 298 299 300 300 301 302 303 304 305 304 305 305 305 306 306 306 306 306 306 306 305 305 305 305 305 306 306 305 306 306 306 305 309 310 308 307 306
287 285 285 289 293 294 296 296 297 298 299 300 300 301 302 302 302 302 302 302 302 302 302 301 301 301 302 302 302 302 303 303 303 304 304 304 302 304 303 303 305 306 305
286 283 283 287 289 291 292 293 295 296 297 297 298 298 299 299 298 298 296 296 296 296 296 297 297 297 297 297 297 298 298 299 299 299 300 301 300 299 300 299 299 300 300
284 281 281 283 286 287 289 290 291 292 293 293 294 294 294 294 293 293 293 292 292 291 291 290 289 289 289 289 289 289 289 290 291 292 293 293 294 293 293 292 292 292 293
283 281 280 280 283 285 286 287 288 289 289 289 289 289 289 289 289 288 288 287 287 287 287 287 287 287 287 287 287 287 287 287 287 287 287 287 287 286 286 286 286 287 289
283 281 279 278 280 282 283 284 285 285 286 286 286 285 285 285 285 285 285 285 285 285 285 285 285 285 285 285 285 285 285 285 285 285 285 285 285 284 284 284 284 283 285
282 280 278 277 278 280 281 282 282 282 283 283 283 283 284 284 284 284 284 284 284 284 284 284 284 284 284 284 284 284 284 284 284 283 283 283 283 283 283 283 283 282 282
280 279 277 276 278 279 280 281 281 281 282 282 282 282 282 282 282 282 283 283 283 283 283 282 282 282 282 282 282 282 282 282 281 281 281 281 281 281 281 281 281 281 281
279 278 276 277 278 279 279 279 280 280 280 281 281 281 281 281 281 282 282 281 281 281 281 281 280 280 280 280 280 280 280 280 280 280 280 280 280 280 280 280 280 279 280
278 276 275 276 277 278 279 279 279 279 280 280 280 280 281 281 281 280 280 280 280 280 279 279 279 279 279 279 279 279 279 279 279 279 279 279 279 279 278 278 278 278 279
277 276 275 276 278 278 278 278 278 278 279 279 279 280 280 279 279 279 279 279 279 279 279 279 278 278 278 278 278 278 278 278 278 278 278 278 278 278 278 277 277 278 278
276 275 276 277 277 277 278 278 278 278 278 279 279 279 278 278 278 278 278 278 278 278 278 278 278 278 278 277 277 277 277 277 278 278 278 278 277 277 277 277 277 277 276
276 275 276 276 277 277 277 277 278 278 278 278 277 277 277 277 277 277 277 277 277 277 277 277 278 277 277 277 277 276 276 277 277 277 277 277 277 277 276 276 275 275 276
275 275 276 276 276 276 277 277 277 277 277 277 277 277 277 276 277 277 277 277 277 277 277 277 277 277 277 277 276 276 275 276 276 276 276 276 276 275 275 275 275 274 275
275 275 275 276 277 278 278 277 277 276 276 276 276 276 276 276 276 276 276 276 276 276 276 276 276 276 276 276 276 275 275 275 275 275 275 275 276 275 274 274 274 274 274
276 276 278 279 278 278 277 276 275 276 275 275 276 275 275 276 276 276 276 275 275 275 275 275 275 275 275 275 275 274 274 274 274 274 274 274 275 275 274 274 274 274 275
279 279 279 278 278 276 275 275 275 275 275 275 275 275 275 275 275 275 275 274 274 274 274 274 274 274 274 275 274 273 272 272 272 273 273 273 273 274 274 275 275 275 275
279 279 277 277 276 275 275 275 275 275 275 275 275 274 274 275 275 275 275 274 274 274 274 274 274 274 274 274 274 273 272 272 272 272 272 272 273 274 274 275 275 275 275
278 276 275 274 274 275 275 274 274 274 275 275 275 275 275 275 274 274 274 273 273 272 271 271 271 271 271 270 270 271 271 272 272 272 272 272 273 274 275 275 275 275 276
275 274 274 274 274 274 274 274 275 275 275 275 274 273 273 272 272 271 271 271 270 270 270 269 269 269 269 269 270 270 271 271 272 272 272 273 274 274 275 275 275 275 275
274 274 274 274 274 274 274 274 274 273 273 272 272 271 271 270 270 270 269 269 268 268 268 268 268 269 269 269 269 269 270 271 271 271 272 272 272 273 273 273 274 274 275
274 274 274 274 273 273 272 272 272 271 271 270 270 270 269 269 269 268 268 268 268 268 269 269 269 269 269 269 270 271 272 272 273 273 273 273 273 273 273 272 273 273 273
273 273 273 272 272 272 272 271 271 270 270 270 269 269 269 268 267 267 268 268 268 268 269 269 269 269 269 270 270 271 271 272 272 272 272 272 273 273 273 273 272 272 273
Wind_Speed
8 6 7 7 6 6 7 8 9 12 13 14 14 14 14 13 11 9 8 6 5 3 1 1 1 2 0 3 6 5 3 7 6 4 4 3 5 5 2 4 6 6 3
9 8 7 6 6 6 6 7 9 13 16 17 17 17 16 14 12 11 10 8 7 5 4 2 2 1 2 3 3 2 1 4 5 4 3 3 4 6 4 6 7 8 8
13 10 9 9 8 7 7 8 10 12 15 17 17 16 15 14 13 11 9 8 7 5 4 4 3 3 2 2 1 3 4 3 4 3 2 0 1 3 2 3 5 2 7
15 13 11 11 11 10 9 9 10 12 14 15 16 16 16 14 12 11 9 8 6 5 4 3 3 3 2 2 1 1 2 2 1 2 3 4 3 1 2 3 9 10 8
19 16 14 13 13 13 11 10 11 11 13 14 14 14 13 12 12 11 9 7 6 5 4 2 2 1 1 0 1 1 1 2 2 1 2 4 4 6 5 9 13 12 12
21 17 16 15 14 14 13 12 11 12 12 13 13 13 13 12 11 10 9 7 6 5 3 2 1 1 2 2 2 2 2 3 3 3 4 3 2 4 4 9 16 17 11
22 19 18 16 16 15 15 14 13 13 14 13 13 13 12 11 10 8 7 6 5 5 4 4 4 3 3 3 4 3 3 3 3 3 3 3 5 5 5 9 11 15 18
21 19 17 17 17 17 16 16 15 14 14 14 13 12 12 11 9 9 8 7 6 5 4 4 4 4 4 4 4 4 4 4 4 4 4 5 5 7 8 9 12 14 8
23 20 18 16 18 18 17 16 16 16 15 14 13 12 12 11 10 9 8 6 5 4 3 2 3 3 4 5 5 5 6 6 6 7 7 8 8 9 10 10 10 11 9
23 20 18 17 18 19 18 17 16 16 15 14 13 12 11 10 8 7 5 4 2 2 2 3 4 5 6 7 7 8 8 8 9 10 10 11 12 12 12 13 12 12 12
24 22 19 18 18 19 18 17 17 15 14 13 12 10 9 7 6 4 2 1 1 3 4 5 6 7 8 8 8 9 9 10 10 11 12 13 14 14 14 14 14 14 14
25 22 20 20 20 19 18 17 16 14 13 12 10 8 6 4 2 1 1 3 4 5 6 7 8 8 9 9 9 9 9 10 10 11 12 13 14 14 14 14 14 15 14
25 22 21 20 20 20 19 17 15 13 11 10 8 5 3 2 2 3 4 4 5 5 6 7 8 9 10 11 11 11 12 12 13 14 15 15 16 15 15 15 15 14 14
27 25 24 24 22 20 18 16 14 12 9 7 5 3 2 3 3 3 3 4 5 6 8 9 10 11 12 13 14 14 15 16 16 17 17 17 18 18 18 18 16 14 17
27 26 26 25 22 20 17 15 12 9 7 5 3 3 3 3 3 3 4 6 8 9 10 12 13 14 14 15 16 17 17 18 20 20 20 20 19 20 20 20 19 20 19
22 23 25 24 21 19 16 13 10 7 4 3 2 2 2 3 4 6 8 10 11 12 13 14 15 16 16 17 18 19 21 21 22 24 24 23 23 21 21 21 21 20 19
25 26 25 22 20 16 12 9 7 4 3 3 2 3 4 5 7 9 11 12 14 15 16 17 18 19 19 20 21 22 23 24 24 26 26 26 25 24 24 23 23 22 18
28 27 25 22 19 13 9 6 4 3 3 3 4 5 6 8 10 12 14 16 18 19 20 22 23 23 23 23 23 24 26 27 27 27 28 29 27 26 25 25 24 21 19
31 29 25 19 14 10 7 4 3 3 3 4 5 7 9 11 13 15 17 19 21 23 24 25 27 28 28 27 27 27 29 29 29 28 28 28 28 25 23 22 24 23 21
28 25 20 15 11 8 5 4 3 3 4 6 8 10 12 15 17 19 21 23 24 26 27 28 28 29 30 28 28 27 28 29 28 27 24 22 23 22 22 24 25 27 26
24 19 14 12 9 7 5 3 2 4 6 8 11 13 15 17 19 21 22 24 25 26 27 29 28 29 29 29 27 26 25 26 25 25 25 24 22 23 23 24 27 29 28
21 17 13 10 8 5 4 2 3 5 8 10 13 15 17 19 20 22 23 23 24 25 25 26 27 27 25 23 24 23 23 24 28 30 31 32 27 27 27 28 28 28 26
20 16 12 9 6 3 1 2 6 9 11 13 15 17 18 19 20 20 21 21 21 22 23 22 24 25 23 24 22 22 23 23 26 28 29 28 29 31 33 33 31 29 29
18 15 12 8 4 0 3 6 9 11 13 14 15 17 18 18 18 18 18 18 18 19 19 21 24 29 30 28 28 28 28 27 27 28 25 24 25 26 30 31 31 31 27
16 12 9 6 2 2 5 8 10 12 13 14 14 15 14 15 15 14 15 15 16 17 22 25 26 27 29 29 27 28 31 33 35 33 35 36 36 37 31 24 27 29 33
12 9 6 4 3 4 6 9 10 11 12 13 13 13 14 14 14 17 19 16 16 17 19 20 22 25 24 25 25 26 27 27 28 30 32 33 29 29 32 32 32 32 27
Wind_Direction
191 188 187 190 204 216 227 228 225 224 213 210 202 198 191 180 173 169 177 202 227 254 271 268 157 102 162 252 259 257 303 305 311 354 24 331 68 38 45 67 55 54 32
188 197 198 202 215 229 239 238 235 227 210 202 199 194 191 185 182 179 183 197 214 211 217 218 190 235 266 278 311 305 277 337 347 11 57 157 116 47 52 66 73 87 56
183 192 196 202 206 210 211 215 209 203 200 197 196 191 188 183 176 176 177 180 186 191 196 199 209 207 208 230 251 253 274 303 329 9 102 359 285 18 127 74 21 309 33
182 182 185 194 193 192 188 189 187 192 189 190 189 191 187 178 173 170 166 166 167 172 189 191 195 209 219 228 233 266 254 246 254 210 173 191 258 210 278 178 294 292 317
183 177 183 188 181 177 173 175 175 175 178 180 184 184 184 178 169 162 158 153 155 152 160 159 145 142 112 45 62 36 11 26 36 13 216 229 236 238 255 281 273 277 307
176 171 177 174 169 168 166 166 161 161 162 166 169 169 167 162 156 151 148 147 149 145 143 141 127 97 91 86 72 53 32 26 27 22 13 11 304 296 297 292 294 307 314
174 169 167 166 163 162 164 162 156 155 153 155 156 157 157 158 156 154 153 148 145 137 121 111 99 87 72 63 55 46 38 27 12 4 348 338 322 324 317 313 312 319 321
174 169 162 162 163 163 164 164 160 158 152 152 153 153 153 151 151 146 141 136 127 118 104 87 69 57 45 33 25 17 10 3 353 346 336 324 317 314 314 317 320 323 309
171 165 159 160 162 162 161 160 160 161 157 157 153 151 147 144 142 139 134 129 120 107 88 59 30 11 1 355 350 347 344 339 335 328 324 319 316 313 311 310 311 313 313
167 164 159 158 163 165 163 161 159 157 154 151 149 146 144 142 140 135 129 121 103 59 15 351 340 332 328 326 324 322 323 320 318 316 314 312 312 312 312 308 307 300 290
166 163 159 160 162 163 163 161 160 158 156 154 151 148 145 142 138 131 121 81 353 334 328 324 320 319 318 316 316 315 315 314 312 309 308 308 309 308 307 304 302 297 293
165 163 160 161 161 163 163 163 161 160 158 157 154 152 150 149 147 152 317 320 322 324 326 327 327 328 326 326 325 323 320 317 314 311 310 310 310 309 306 303 302 299 295
162 159 158 159 164 166 166 165 163 162 161 160 159 159 165 195 272 301 310 318 324 328 330 330 330 329 327 325 323 321 318 315 312 310 310 311 312 311 308 306 305 302 296
161 161 164 168 168 167 166 164 163 163 163 164 168 187 240 281 295 303 312 320 323 323 323 323 323 322 321 319 317 314 312 309 307 305 304 306 307 307 305 303 301 296 292
161 165 167 166 165 165 164 164 164 165 168 177 201 239 264 275 286 298 306 310 312 314 315 317 318 318 318 317 315 312 310 308 306 304 303 301 301 300 299 297 294 291 293
161 161 163 163 161 161 160 161 163 168 182 212 233 246 270 285 295 304 309 309 309 311 312 314 313 313 313 312 311 310 308 305 303 302 302 302 300 297 293 291 289 287 289
159 160 159 157 154 152 153 158 165 177 208 231 248 266 280 292 299 303 305 306 308 308 308 306 304 304 305 305 305 305 302 300 299 298 299 299 298 296 293 290 287 283 276
156 155 153 150 151 154 162 175 184 189 206 232 258 276 287 298 304 306 305 304 303 303 303 303 302 301 302 302 303 301 298 296 295 295 295 294 293 291 288 285 284 283 280
158 156 158 155 153 165 182 190 177 190 229 260 282 294 299 300 300 301 302 302 301 301 302 302 302 301 301 301 300 298 296 293 293 293 293 293 292 291 283 283 288 290 286
159 158 155 159 165 176 184 178 181 227 270 292 296 299 302 304 304 305 305 304 303 302 302 300 300 299 299 299 297 294 291 290 290 288 286 279 278 281 280 277 282 282 277
156 154 154 165 170 169 167 177 227 273 289 298 305 308 309 308 306 304 303 302 302 301 301 300 300 299 299 299 297 293 288 286 285 283 282 281 280 277 276 276 275 273 284
147 153 161 159 154 160 178 211 265 289 303 311 310 308 306 305 303 303 303 302 302 301 301 301 301 301 300 298 297 296 291 289 285 283 283 283 280 278 276 274 273 274 275
148 148 149 152 155 164 189 297 301 311 313 313 313 311 309 310 310 309 308 307 306 302 301 299 299 300 302 301 300 297 292 288 284 282 284 284 280 278 275 270 270 271 268
140 143 143 140 140 71 330 316 317 318 320 318 316 314 313 313 309 307 307 305 304 301 299 302 309 314 315 312 311 307 304 305 299 303 299 290 280 280 279 271 263 261 258
133 131 130 129 114 346 331 328 328 326 324 321 321 322 324 321 319 318 317 315 311 312 312 309 308 305 305 306 304 300 297 297 295 291 285 285 283 284 282 266 253 267 266
123 119 108 91 39 359 338 329 328 329 332 334 334 331 327 330 327 324 322 319 310 309 306 305 303 305 302 304 304 303 301 299 297 294 294 293 291 292 276 270 266 270 262